This demonstration page uses our WeatherBlox Daily Observations layout. Learn more.

Left ArrowRight Arrow

41.86663, -103.66717

Hourly Observations for April 29, 2016

Temp ( °F °C ) Dew Point ( °F °C ) Humidity (%) Winds ( mph kmh ) Pressure ( in mb ) Visibility ( mi km ) Precip ( " mm )
12:12 am 00:12 Mostly Cloudy 34 1 32 undefined 93 93 N 6 9 30.21 1023 10 16 N/A
12:53 am 00:53 Cloudy 35 1.7 32 undefined 89 89 N N/A 30.12 1020 10 16 N/A
1:19 am 01:19 Cloudy 35 1.7 32 undefined 89 89 NE 7 11 30.18 1022 10 16 N/A
1:43 am 01:43 Cloudy 35 1.7 32 undefined 89 89 NE 8 13 30.18 1022 10 16 N/A
1:53 am 01:53 Cloudy 35 1.7 32 undefined 89 89 NE 8 13 30.12 1020 10 16 N/A
2:53 am 02:53 Cloudy 34 1.1 32 undefined 92 92 E 10 17 30.11 1020 10 16 N/A
3:32 am 03:32 Cloudy 36 2 34 1 93 93 SE 5 7 30.18 1022 10 16 N/A
3:53 am 03:53 Cloudy 35 1.7 32 undefined 89 89 SSE 5 7 30.12 1020 10 16 N/A
4:18 am 04:18 Cloudy 36 2 34 1 93 93 SSE 7 11 30.18 1022 10 16 N/A
4:42 am 04:42 Cloudy 36 2 34 1 93 93 SE 5 7 30.18 1022 10 16 N/A
4:53 am 04:53 Cloudy 35 1.7 33 0.6 93 93 ESE 6 9 30.14 1021 10 16 N/A
5:53 am 05:53 Cloudy 36 2.2 33 0.6 89 89 ENE 5 7 30.11 1020 10 16 N/A
6:14 am 06:14 Cloudy 36 2 34 1 93 93 ENE 6 9 30.15 1021 10 16 N/A
6:31 am 06:31 Cloudy 36 2.2 34 1.1 93 93 N N/A 30.15 1021 10 16 N/A
6:53 am 06:53 Cloudy 36 2.2 33 0.6 89 89 N N/A 30.10 1019 10 16 N/A
7:53 am 07:53 Cloudy 38 3.3 35 1.7 89 89 NE 6 9 30.07 1018 10 16 N/A
7:59 am 07:59 Cloudy 38 3.3 35 1.7 89 89 ENE 9 15 30.09 1019 10 16 N/A
8:11 am 08:11 Cloudy 38 3.3 34 1.1 86 86 NE 10 17 30.09 1019 10 16 N/A
8:27 am 08:27 Cloudy 39 3.9 35 1.7 86 86 NE 9 15 30.09 1019 10 16 N/A
8:53 am 08:53 Cloudy 40 4.4 35 1.7 83 83 ENE 9 15 30.05 1018 10 16 N/A
9:16 am 09:16 Cloudy 39 4 34 1 81 81 ENE 8 13 30.03 1017 10 16 N/A
9:53 am 09:53 Cloudy 42 5.6 34 1.1 73 73 NNE 6 9 30.02 1017 10 16 N/A
10:53 am 10:53 Cloudy 42 5.6 34 1.1 73 73 NE 9 15 30.04 1017 10 16 N/A
11:53 am 11:53 Cloudy 43 6.1 34 1.1 71 71 E 5 7 30.04 1017 10 16 N/A
12:53 pm 12:53 Cloudy 46 7.8 35 1.7 66 66 ENE 10 17 30.00 1016 10 16 N/A
1:18 pm 13:18 Cloudy 45 7 36 2 71 71 E 10 17 29.97 1015 10 16 N/A
1:39 pm 13:39 Cloudy 46 7.8 35 1.7 66 66 ENE 14 22 29.94 1014 10 16 N/A
1:53 pm 13:53 Cloudy 46 7.8 34 1.1 63 63 NE 14 22 29.98 1015 10 16 N/A
2:51 pm 14:51 Cloudy 43 6 36 2 76 76 ENE 15 24 29.97 1015 10 16 N/A
2:53 pm 14:53 Cloudy with Light Rain 43 6.1 35 1.7 74 74 ENE 16 26 30.00 1016 10 16 N/A
3:53 pm 15:53 Cloudy with Light Rain 40 4.4 36 2.2 86 86 ENE 13 20 30.00 1016 5 8 0.03 0.76
4:19 pm 16:19 Cloudy with Light Rain 39 3.9 35 1.7 86 86 E 15 24 30.00 1016 4 6 0.02 0.51
4:28 pm 16:28 Cloudy with Light Rain 39 4 36 2 87 87 ENE 14 22 30.00 1016 4 6 N/A
4:50 pm 16:50 Cloudy with Light Rain 37 3 36 2 93 93 E 9 15 30.03 1017 6 10 N/A
4:51 pm 16:51 Cloudy with Light Rain 37 3 36 2 93 93 E 8 13 30.03 1017 6 10 N/A
5:11 pm 17:11 Cloudy with Light Rain 38 3.3 35 1.7 89 89 ENE 8 13 30.03 1017 5 8 0.02 0.51
5:43 pm 17:43 Cloudy with Light Rain 38 3.3 35 1.7 89 89 ENE 6 9 30.03 1017 5 8 0.06 1.52
5:50 pm 17:50 Cloudy with Light Rain 37 3 34 1 87 87 ENE 6 9 30.03 1017 5 8 N/A
5:53 pm 17:53 Cloudy with Light Rain 37 2.8 34 1.1 89 89 ENE 6 9 30.00 1016 6 10 0.07 1.78
6:08 pm 18:08 Cloudy with Light Rain 37 3 34 1 87 87 NE 3 6 30.03 1017 5 8 N/A
6:53 pm 18:53 Cloudy with Light Rain 37 2.8 34 1.1 89 89 NE 5 7 29.99 1016 5 8 0.05 1.27
7:29 pm 19:29 Cloudy with Light Snow 35 1.7 32 undefined 89 89 ENE 3 6 30.00 1016 3 4 0.04 1.02
7:53 pm 19:53 Cloudy with Light Snow 34 1.1 32 undefined 92 92 N N/A 30.00 1016 3 4 0.06 1.52
8:12 pm 20:12 Cloudy with Light Snow 34 1 32 undefined 93 93 NW 3 6 30.03 1017 3 5 N/A
8:26 pm 20:26 Cloudy with Light Snow 34 1 32 undefined 93 93 WNW 5 7 30.03 1017 3 4 N/A
8:42 pm 20:42 Cloudy with Light Snow 34 1 32 undefined 93 93 WNW 3 6 30.03 1017 2 3 N/A
8:53 pm 20:53 Cloudy with Light Snow 33 0.6 31 -0.6 92 92 WNW 5 7 29.99 1016 2 3 0.04 1.02
9:09 pm 21:09 Cloudy with Light Snow 33 0.6 31 -0.6 92 92 WNW 5 7 30.03 1017 2 2 0.01 0.25
9:39 pm 21:39 Cloudy with Light Snow 33 0.6 32 undefined 96 96 NW 5 7 30.03 1017 2 3 0.03 0.76
9:42 pm 21:42 Cloudy with Light Snow 34 1 30 -1 87 87 NW 5 7 30.03 1017 2 3 N/A
9:46 pm 21:46 Cloudy with Light Snow 34 1 30 -1 87 87 NW 5 7 30.06 1018 3 5 N/A
9:53 pm 21:53 Cloudy with Light Snow 33 0.6 32 undefined 96 96 NW 5 7 29.98 1015 3 5 0.03 0.76
10:21 pm 22:21 Cloudy with Light Snow 33 0.6 32 undefined 96 96 NNW 5 7 30.03 1017 3 5 0.01 0.25
10:35 pm 22:35 Cloudy with Light Snow 33 0.6 32 undefined 96 96 NNW 5 7 30.03 1017 3 4 0.02 0.51
10:40 pm 22:40 Cloudy with Light Snow 34 1 32 undefined 93 93 NNW 5 7 30.03 1017 2 3 N/A
10:48 pm 22:48 Cloudy with Light Snow 34 1 30 -1 87 87 NNW 6 9 30.03 1017 2 2 N/A
10:53 pm 22:53 Cloudy with Light Snow 33 0.6 31 -0.6 92 92 N 6 9 29.98 1015 2 3 0.04 1.02
11:50 pm 23:50 Cloudy with Light Snow 34 1 32 undefined 93 93 N 3 6 30.03 1017 2 3 N/A
11:53 pm 23:53 Cloudy with Light Snow 33 0.6 32 undefined 96 96 N 5 7 29.96 1015 2 3 0.07 1.78

Powered by AerisWeather